BOX586 EDDP-VTBS

Flight info

Callsign BOX586
Flight time N/A
Altitude 31000
Route DRN2N DRN Z21 OMELO DCT EVIKU DCT PATAK DCT TUVNU DCT DINRO/N0484F330 DCT UDROS UN743 GAKSU UT310 SIN UN644 KARDE UL851 TBN UG261 NOLGA DCT BARAD M747 SULEL N449 DUKAN B449 KEMOR/N0491F350 B449 RANAH L750 MERUN G452 LKN R460 CEA L507 ESDOT/N0489F370 L507 IGONI DCT WILLA
Aircraft B77L/H-SDE1E2E3FGHIJ2J3J4J5M1RWXY/LB1D1

Departure

Time N/A
Airport Leipzig/Halle Airport (EDDP)

Arrival

Time 2026-05-01 15:12
Airport Suvarnabhumi Airport (VTBS)
Time Latitude Longitude Altitude Speed Heading
2026-05-01 14:30 16.23700 97.91404 34886 ft 495 kts 144°
2026-05-01 14:31 16.18481 97.96083 34877 ft 496 kts 143°
2026-05-01 14:31 16.13290 98.00754 34885 ft 496 kts 143°
2026-05-01 14:32 16.08064 98.05455 34899 ft 497 kts 143°
2026-05-01 14:32 16.02827 98.10159 34897 ft 498 kts 143°
2026-05-01 14:33 15.97585 98.14863 34899 ft 498 kts 143°
2026-05-01 14:33 15.92376 98.19534 34902 ft 498 kts 143°
2026-05-01 14:34 15.87132 98.24233 34906 ft 498 kts 143°
2026-05-01 14:34 15.81884 98.28933 34899 ft 498 kts 143°
2026-05-01 14:35 15.76633 98.33632 34908 ft 498 kts 143°
2026-05-01 14:35 15.71418 98.38295 34922 ft 498 kts 143°
2026-05-01 14:36 15.66169 98.42986 34924 ft 497 kts 143°
2026-05-01 14:36 15.61808 98.46880 34933 ft 497 kts 143°
2026-05-01 14:37 15.56569 98.51557 34944 ft 497 kts 143°
2026-05-01 14:37 15.50479 98.56989 34945 ft 497 kts 143°
2026-05-01 14:38 15.45594 98.62087 34946 ft 502 kts 133°
2026-05-01 14:38 15.41965 98.66781 34964 ft 502 kts 132°
2026-05-01 14:39 15.37614 98.72438 34966 ft 502 kts 132°
2026-05-01 14:39 15.32514 98.78993 34967 ft 503 kts 132°
2026-05-01 14:40 15.28096 98.84629 34974 ft 504 kts 132°
2026-05-01 14:40 15.24419 98.89315 34955 ft 504 kts 132°
2026-05-01 14:41 15.20004 98.94941 34963 ft 503 kts 132°
2026-05-01 14:41 15.15583 99.00569 34962 ft 504 kts 132°
2026-05-01 14:42 15.11159 99.06200 34956 ft 504 kts 132°
2026-05-01 14:42 15.06761 99.11793 34948 ft 505 kts 132°
2026-05-01 14:43 15.02367 99.17381 34944 ft 497 kts 132°
2026-05-01 14:43 15.00182 99.20155 34511 ft 498 kts 132°
2026-05-01 14:43 14.98000 99.22924 33999 ft 494 kts 132°
2026-05-01 14:43 14.95837 99.25670 33412 ft 491 kts 132°
2026-05-01 14:44 14.93689 99.28396 32893 ft 487 kts 132°
2026-05-01 14:44 14.89468 99.33750 31878 ft 480 kts 132°
2026-05-01 14:44 14.87366 99.36414 31393 ft 476 kts 132°
2026-05-01 14:45 14.85278 99.39059 30879 ft 473 kts 132°
2026-05-01 14:45 14.81131 99.44298 29865 ft 469 kts 132°
2026-05-01 14:45 14.79070 99.46897 29293 ft 466 kts 131°
2026-05-01 14:46 14.77021 99.49483 28764 ft 463 kts 131°
2026-05-01 14:46 14.73004 99.54549 27754 ft 456 kts 131°
2026-05-01 14:46 14.71003 99.57072 27258 ft 452 kts 131°
2026-05-01 14:47 14.69017 99.59576 26759 ft 449 kts 131°
2026-05-01 14:47 14.67042 99.62064 26291 ft 446 kts 131°
2026-05-01 14:47 14.65082 99.64533 25798 ft 443 kts 131°
2026-05-01 14:48 14.61196 99.69427 24798 ft 438 kts 130°
2026-05-01 14:48 14.59270 99.71852 24323 ft 436 kts 130°
2026-05-01 14:48 14.55442 99.76668 23335 ft 432 kts 130°
2026-05-01 14:49 14.51684 99.81395 22315 ft 425 kts 130°
2026-05-01 14:49 14.47962 99.86074 21355 ft 418 kts 131°
2026-05-01 14:50 14.44938 99.89911 20571 ft 409 kts 127°
2026-05-01 14:50 14.42818 99.96274 19534 ft 400 kts 104°
2026-05-01 14:51 14.42191 99.99059 19074 ft 398 kts 105°
2026-05-01 14:51 14.40864 100.04524 18175 ft 394 kts 105°
2026-05-01 14:52 14.39519 100.09921 17454 ft 381 kts 106°
2026-05-01 14:52 14.38855 100.12539 17167 ft 374 kts 106°
2026-05-01 14:52 14.37549 100.17700 16632 ft 370 kts 106°
2026-05-01 14:53 14.36902 100.20264 16353 ft 369 kts 106°
2026-05-01 14:53 14.36270 100.22787 16082 ft 368 kts 106°
2026-05-01 14:53 14.35633 100.25340 15817 ft 367 kts 106°
2026-05-01 14:53 14.34997 100.27882 15548 ft 366 kts 106°
2026-05-01 14:54 14.34363 100.30417 15284 ft 364 kts 106°
2026-05-01 14:54 14.33734 100.32928 15016 ft 363 kts 106°
2026-05-01 14:54 14.33100 100.35456 14746 ft 362 kts 106°
2026-05-01 14:54 14.32472 100.37959 14484 ft 360 kts 106°
2026-05-01 14:55 14.31845 100.40456 14208 ft 359 kts 106°
2026-05-01 14:55 14.31222 100.42940 13954 ft 358 kts 106°
2026-05-01 14:55 14.30607 100.45385 13698 ft 356 kts 106°
2026-05-01 14:55 14.29987 100.47854 13394 ft 355 kts 107°
2026-05-01 14:56 14.29369 100.50310 13125 ft 353 kts 106°
2026-05-01 14:56 14.28756 100.52750 12856 ft 351 kts 107°
2026-05-01 14:56 14.28145 100.55177 12608 ft 348 kts 107°
2026-05-01 14:56 14.27539 100.57586 12352 ft 346 kts 106°
2026-05-01 14:57 14.26937 100.59975 12096 ft 344 kts 106°
2026-05-01 14:57 14.24851 100.64117 11654 ft 327 kts 142°
2026-05-01 14:57 14.22878 100.65270 11457 ft 329 kts 162°
2026-05-01 14:58 14.20629 100.65730 11233 ft 330 kts 178°
2026-05-01 14:58 14.18381 100.65446 10976 ft 325 kts 194°
2026-05-01 14:58 14.16217 100.64839 10746 ft 320 kts 195°
2026-05-01 14:58 14.14095 100.64245 10494 ft 312 kts 195°
2026-05-01 14:59 14.12025 100.63677 10272 ft 304 kts 194°
2026-05-01 14:59 14.10009 100.63135 10049 ft 295 kts 194°
2026-05-01 14:59 14.08078 100.62624 9871 ft 286 kts 194°
2026-05-01 14:59 14.06176 100.62123 9640 ft 278 kts 194°
2026-05-01 15:00 14.02539 100.61225 9166 ft 257 kts 184°
2026-05-01 15:00 14.00827 100.61520 9003 ft 249 kts 156°
2026-05-01 15:00 13.99417 100.62564 8781 ft 254 kts 136°
2026-05-01 15:01 13.98380 100.64041 8513 ft 257 kts 115°
2026-05-01 15:01 13.97834 100.65773 8275 ft 259 kts 107°
2026-05-01 15:01 13.97384 100.67597 7992 ft 259 kts 107°
2026-05-01 15:01 13.97089 100.69375 7691 ft 254 kts 89°
2026-05-01 15:02 13.97589 100.71099 7437 ft 255 kts 58°
2026-05-01 15:02 13.98349 100.72024 7277 ft 257 kts 41°
2026-05-01 15:02 14.00494 100.73093 6897 ft 259 kts 13°
2026-05-01 15:02 14.02250 100.73529 6555 ft 259 kts 13°
2026-05-01 15:03 14.04000 100.73980 6159 ft 259 kts 14°
2026-05-01 15:03 14.05637 100.74682 5645 ft 258 kts 39°
2026-05-01 15:03 14.06743 100.76097 5209 ft 254 kts 71°
2026-05-01 15:03 14.07005 100.77820 4819 ft 245 kts 100°
2026-05-01 15:04 14.06429 100.79418 4410 ft 236 kts 131°
2026-05-01 15:04 14.05186 100.80437 4096 ft 223 kts 157°
2026-05-01 15:04 14.03789 100.81077 3984 ft 217 kts 159°
2026-05-01 15:04 14.02420 100.81688 3844 ft 212 kts 159°
2026-05-01 15:05 14.01045 100.82137 3685 ft 205 kts 180°
2026-05-01 15:05 13.99641 100.81942 3608 ft 205 kts 192°
2026-05-01 15:05 13.98225 100.81636 3567 ft 210 kts 193°
2026-05-01 15:05 13.96824 100.81299 3511 ft 209 kts 194°
2026-05-01 15:06 13.95417 100.80938 3486 ft 207 kts 194°
2026-05-01 15:06 13.94023 100.80572 3480 ft 205 kts 194°
2026-05-01 15:06 13.92675 100.80216 3509 ft 197 kts 194°
2026-05-01 15:06 13.91344 100.79863 3485 ft 197 kts 194°
2026-05-01 15:07 13.90027 100.79514 3474 ft 193 kts 194°
2026-05-01 15:07 13.88741 100.79174 3499 ft 188 kts 194°
2026-05-01 15:07 13.87433 100.78828 3249 ft 197 kts 194°
2026-05-01 15:07 13.86124 100.78482 3026 ft 196 kts 194°
2026-05-01 15:08 13.84811 100.78134 2775 ft 193 kts 194°
2026-05-01 15:08 13.83527 100.77794 2526 ft 186 kts 194°
2026-05-01 15:08 13.82325 100.77476 2289 ft 170 kts 194°
2026-05-01 15:08 13.81186 100.77175 2090 ft 169 kts 194°
2026-05-01 15:09 13.80048 100.76874 1878 ft 169 kts 194°
2026-05-01 15:09 13.78918 100.76576 1641 ft 164 kts 194°
2026-05-01 15:09 13.77868 100.76298 1446 ft 148 kts 193°
2026-05-01 15:09 13.76893 100.76040 1271 ft 144 kts 193°
2026-05-01 15:10 13.75915 100.75783 1091 ft 146 kts 193°
2026-05-01 15:10 13.73974 100.75269 746 ft 145 kts 194°
2026-05-01 15:10 13.73004 100.75012 567 ft 145 kts 193°
2026-05-01 15:11 13.72046 100.74762 376 ft 139 kts 193°
2026-05-01 15:11 13.70173 100.74270 42 ft 140 kts 194°
2026-05-01 15:11 13.69301 100.74039 17 ft 110 kts 194°
2026-05-01 15:12 13.68743 100.73892 19 ft 55 kts 194°
2026-05-01 15:12 13.68295 100.73851 18 ft 11 kts 165°
2026-05-01 15:12 13.68229 100.73877 18 ft 10 kts 140°
2026-05-01 15:13 13.68379 100.73987 18 ft 14 kts 14°
2026-05-01 15:14 13.68636 100.74055 18 ft 22 kts 14°
2026-05-01 15:14 13.68782 100.74093 19 ft 22 kts 14°
2026-05-01 15:14 13.69072 100.74169 18 ft 22 kts 14°
2026-05-01 15:15 13.69364 100.74246 17 ft 22 kts 14°
2026-05-01 15:15 13.69656 100.74323 17 ft 22 kts 14°
2026-05-01 15:16 13.69948 100.74400 18 ft 22 kts 14°
2026-05-01 15:16 13.70238 100.74475 18 ft 22 kts 14°
2026-05-01 15:17 13.70529 100.74552 18 ft 22 kts 14°
2026-05-01 15:18 13.70837 100.74639 18 ft 8 kts 41°
2026-05-01 15:18 13.70853 100.74686 18 ft 3 kts 86°
2026-05-01 15:19 13.70824 100.74727 18 ft 5 kts 174°
2026-05-01 15:19 13.70682 100.74693 18 ft 13 kts 194°
2026-05-01 15:19 13.70595 100.74670 18 ft 13 kts 194°
2026-05-01 15:20 13.70421 100.74624 18 ft 11 kts 194°
2026-05-01 15:20 13.70357 100.74608 18 ft 7 kts 194°
2026-05-01 15:20 13.70323 100.74613 18 ft 5 kts 140°
2026-05-01 15:21 13.70309 100.74647 18 ft 5 kts 105°
2026-05-01 15:21 13.70303 100.74670 18 ft 2 kts 104°
2026-05-01 15:21 13.70299 100.74686 18 ft 2 kts 104°
2026-05-01 15:21 13.70299 100.74689 18 ft 0 kts 104°